User: anonymous   Login
Location: Columbia
(38.9520°N, 92.3340°W)
Time: 18:11:15
(UTC-05:00)
Language:

Iridium 52 - Orbit

View from above orbital plane
View from above orbital plane
View from above satellite
View from above satellite

Ground track
Ground track

The orbit data is extracted from the following two-line orbital elements,

1 25169U 98010A   15182.41362102  .00000193  00000-0  61843-4 0  9996
2 25169 086.3975 289.9538 0002285 092.9709 336.0735 14.34219672909048
Epoch (UTC): 01 July 2015 09:55:36
Eccentricity: 0.0002285
inclination: 86.3975°
perigee height: 776 km
apogee height: 779 km
right ascension of ascending node: 289.9538°
argument of perigee: 92.9709°
revolutions per day: 14.34219672
mean anomaly at epoch: 336.0735°
orbit number at epoch: 90904

The dashed part of the orbit path shows where the satellite is in the earth's shadow,  

DLR